Regional Weather Roundup
Issued by NWS Spokane, WA

Home | Current Version | Previous Version | Text Only | Print | Product List | Glossary On
Versions: 1 2 3 4 5 6 7 8 9 10 11 12 13 14 15 16 17 18 19 20 21 22 23 24 25 26 27 28 29 30 31 32 33 34 35 36 37 38 39 40 41 42 43 44 45 46 47 48 49 50
000
NZUS01 KOTX 222057
RWROTX
EASTERN WASHINGTON/NORTHERN IDAHO ROUNDUP
NATIONAL WEATHER SERVICE, SPOKANE WA
200 PM PDT MON SEP 22 2014

Note: "fair" indicated few or no clouds below 12,000 feet with no
significant weather and/or obstructions to visibility.

...NORTHEAST WASHINGTON AND NORTHERN IDAHO PANHANDLE...

CITY           SKY/WX    TMP DP  RH WIND       PRES   REMARKS
SPOKANE INTL   MOSUNNY   83  46  27 SW13G18   29.93F
SPOKANE DOWNTO SUNNY     85  44  23 VRB5      29.92F
DEER PARK      SUNNY     80  46  30 SE7       29.93F

...SOUTHEAST WASHINGTON AND SOUTHERN IDAHO PANHANDLE...

CITY           SKY/WX    TMP DP  RH WIND       PRES   REMARKS
WALLA WALLA    PTSUNNY   85  49  28 W10       29.91F
PULLMAN/MOSCOW MOSUNNY   82  44  26 SW17      29.98F
LOWELL           N/A     84  54  35 N3        29.91F

...COLUMBIA BASIN...

CITY           SKY/WX    TMP DP  RH WIND       PRES   REMARKS
EPHRATA        CLOUDY    82  47  29 VRB5      29.87S
MOSES LAKE     CLOUDY    82  50  32 SW8       29.88F
TRI CITIES     CLOUDY    80  53  39 W5        29.87S
HERMISTON      CLOUDY    84  51  31 SW8       29.87F
PENDLETON      CLOUDY    78  47  33 W13       29.92S

...EAST SLOPES CASCADES...

CITY           SKY/WX    TMP DP  RH WIND       PRES   REMARKS
THE DALLES     PTSUNNY   77  53  43 NW17      29.88F
YAKIMA         MOSUNNY   84  52  33 VRB6      29.87F
ELLENSBURG     MOSUNNY   79  56  45 NW12      29.89F
OMAK           LGT RAIN  70  51  51 W9        29.87F

...SOUTHERN BRITISH COLUMBIA...

CITY           SKY/WX    TMP DP  RH WIND       PRES   REMARKS

...WESTERN MONTANA...

CITY           SKY/WX    TMP DP  RH WIND       PRES   REMARKS

...NEIGHBORING CITIES...

CITY           SKY/WX    TMP DP  RH WIND       PRES   REMARKS
SEATTLE        CLOUDY    69  54  58 SW6       30.00S



USA.gov is the U.S. government's official web portal to all federal, state and local government web resources and services.